[[{"header":{"parameterUnit":"m.s-1","parameterCategory":1,"la1":30.2991,"la2":30.254,"lo1":-89.0895,"lo2":-89.0444,"dy":0.0017,"dx":0.0017,"nx":28,"ny":28,"refTime":"2024-05-03T21:00:00:Z","depth":0,"parameterNumber":2,"parameterNumberName":"U-component_of_WINDS"},"data":[0,0,0,0,0,0,0,0,0,0,0,0,0,0,0,0,0,0,0,0,0,0,0,0,0,0,0,0,0,0,0,0,0,0,0,0,0,0,0,0,0,0,0,0,0,0,0,0,0,0,0,0,0,0,0,0,0,0,-1.0765,-1.0765,0,-1.0758,-1.0758,-1.0758,-1.0731,-1.0731,-1.073,-1.0729,-1.0724,-1.0724,-1.0725,0,0,0,0,0,0,0,0,0,0,0,0,0,-1.0756,-1.0757,-1.0765,-1.0765,-1.0764,-1.0758,-1.0758,-1.0758,-1.0731,-1.0731,-1.073,-1.0729,-1.0724,-1.0724,-1.0725,0,0,0,0,0,0,0,0,0,0,0,0,0,-1.0756,-1.0757,-1.0765,-1.0751,-1.0749,-1.0758,-1.0758,-1.0758,-1.0731,-1.0731,-1.073,-1.0729,-1.0724,-1.0724,-1.0725,-1.0747,0,0,-1.0727,-1.0727,0,0,0,0,0,0,0,0,-1.0756,-1.0756,-1.0753,-1.0752,-1.075,-1.0744,-1.0753,-1.0754,-1.0732,-1.0738,-1.0729,-1.0728,-1.0732,-1.0732,-1.0732,-1.0747,-1.0747,-1.0727,-1.0727,-1.0728,-1.0728,0,0,0,0,0,0,0,-1.0756,-1.0756,-1.0762,-1.0753,-1.0751,-1.0745,-1.0744,-1.0753,-1.074,-1.0738,-1.0736,-1.0735,-1.0731,-1.0732,-1.0732,-1.0747,-1.0727,-1.0728,-1.0728,-1.0728,-1.0779,-1.078,0,0,0,0,0,0,-1.0758,-1.0757,-1.0762,-1.0762,-1.0751,-1.0746,-1.0745,-1.0747,-1.074,-1.0738,-1.0736,-1.0734,-1.0731,-1.0731,-1.0732,-1.0758,-1.0728,-1.0728,-1.0729,-1.0778,-1.078,-1.0781,0,0,0,0,0,0,-1.0758,-1.0759,-1.0762,-1.0759,-1.0759,-1.0747,-1.075,-1.0748,-1.0748,-1.0739,-1.0737,-1.0739,-1.073,-1.0731,-1.0743,-1.0757,-1.0729,-1.0729,-1.0777,-1.0779,-1.078,-1.0809,0,0,0,0,0,0,-1.0758,-1.0759,-1.0767,-1.0759,-1.0759,-1.0774,-1.0751,-1.0748,-1.0749,-1.0747,-1.0741,-1.074,-1.073,-1.0743,-1.0744,-1.0757,-1.073,-1.0776,-1.0778,-1.078,-1.0807,-1.0812,-1.0815,0,0,0,0,0,-1.0757,-1.0776,-1.0767,-1.0768,-1.0769,-1.0775,-1.0775,-1.0763,-1.0751,-1.0759,-1.0753,-1.074,-1.0755,-1.0744,-1.0746,-1.0759,-1.0775,-1.0777,-1.0779,-1.0805,-1.0811,-1.0815,0,0,0,0,0,0,-1.0786,-1.0774,-1.0765,-1.0781,-1.0779,-1.077,-1.078,-1.0769,-1.0771,-1.0768,-1.0754,-1.0753,-1.0768,-1.0765,-1.0753,-1.078,-1.0763,-1.0766,-1.0782,-1.0787,-1.0791,-1.0792,-1.073,0,0,0,0,0,-1.0794,-1.0799,-1.0789,-1.0804,-1.0804,-1.0792,-1.0795,-1.0785,-1.0783,-1.0782,-1.0777,-1.0775,-1.078,-1.0783,-1.0787,-1.0806,-1.0805,-1.0816,-1.082,-1.0824,-1.0827,-1.0837,-1.0842,-1.0788,-1.0788,-1.0788,0,0,-1.0811,-1.0805,-1.081,-1.081,-1.0807,-1.0814,-1.0792,-1.08,-1.0804,-1.0783,-1.0795,-1.0791,-1.0788,-1.0805,-1.0812,-1.0803,-1.0841,-1.0827,-1.083,-1.083,-1.084,-1.0845,-1.0849,-1.0789,-1.0789,-1.0789,0,0,-1.0845,-1.0841,-1.0854,-1.0851,-1.0847,-1.0839,-1.0842,-1.0835,-1.0832,-1.0843,-1.0827,-1.0833,-1.0841,-1.084,-1.084,-1.0874,-1.0862,-1.0875,-1.0897,-1.0908,-1.0912,-1.0916,-1.0928,-1.0933,-1.0878,-1.0878,-1.0878,0,-1.0867,-1.0876,-1.0861,-1.087,-1.0871,-1.0851,-1.0864,-1.0863,-1.086,-1.0862,-1.0851,-1.0861,-1.0858,-1.0874,-1.0882,-1.0882,-1.0886,-1.0876,-1.0912,-1.0916,-1.0919,-1.0931,-1.0935,-1.0879,-1.0879,-1.0879,-1.0879,0,-1.0903,-1.0909,-1.092,-1.0917,-1.0919,-1.093,-1.0918,-1.0921,-1.0912,-1.0905,-1.0917,-1.0912,-1.0915,-1.0918,-1.0909,-1.0932,-1.0927,-1.0915,-1.0897,-1.0926,-1.0937,-1.0941,-1.0882,-1.0881,-1.0881,-1.088,0,0,-1.0956,-1.0945,-1.0949,-1.0948,-1.0942,-1.0947,-1.0956,-1.0958,-1.0962,-1.0961,-1.0969,-1.0976,-1.0964,-1.0965,-1.0956,-1.0965,-1.0992,-1.0951,-1.0951,-1.0959,-1.1018,-1.1028,-1.1033,-1.0984,-1.0985,-1.0985,-1.1018,0,-1.0989,-1.1005,-1.0992,-1.101,-1.1016,-1.0997,-1.1006,-1.1004,-1.0998,-1.1002,-1.0995,-1.1001,-1.0985,-1.0985,-1.0993,-1.0987,-1.1004,-1.0984,-1.0992,-1.0993,-1.0994,-1.1039,-1.1049,-1.1081,-1.1023,-1.1023,-1.1024,0,-1.103,-1.103,-1.1049,-1.1041,-1.1043,-1.1051,-1.1052,-1.1056,-1.1053,-1.1048,-1.1048,-1.1036,-1.1046,-1.1028,-1.1041,-1.1029,-1.1031,-1.1028,-1.1029,-1.103,-1.101,-1.1042,-1.1091,-1.1096,-1.103,-1.103,-1.1029,0,-1.1067,-1.1072,-1.1084,-1.1083,-1.1075,-1.1081,-1.1078,-1.1074,-1.1075,-1.1076,-1.1077,-1.1079,-1.108,-1.1082,-1.1071,-1.1059,-1.1086,-1.1067,-1.1083,-1.1084,-1.109,-1.109,-1.1141,-1.1091,-1.1091,-1.1091,-1.1091,0,-1.1106,-1.1119,-1.1101,-1.1108,-1.1122,-1.1107,-1.1121,-1.1116,-1.1112,-1.1118,-1.1102,-1.1109,-1.1094,-1.1099,-1.109,-1.1103,-1.1104,-1.11,-1.1098,-1.1102,-1.1103,-1.1104,-1.1102,-1.1092,-1.1092,-1.1091,-1.1091,0,-1.1151,-1.1139,-1.1151,-1.1142,-1.1139,-1.115,-1.1142,-1.1149,-1.1141,-1.115,-1.1151,-1.114,-1.1145,-1.1134,-1.1138,-1.1132,-1.115,-1.1144,-1.1151,-1.1149,-1.1166,-1.1165,-1.122,-1.1227,-1.1172,-1.1172,-1.1173,0,-1.1177,-1.1186,-1.1177,-1.118,-1.1177,-1.1182,-1.1184,-1.1169,-1.1172,-1.1169,-1.1176,-1.118,-1.1182,-1.1191,-1.1183,-1.1186,-1.1181,-1.12,-1.1181,-1.1185,-1.1182,-1.1182,-1.1183,-1.1204,-1.1205,-1.1205,-1.1206,0,-1.1224,-1.1218,-1.122,-1.1221,-1.1223,-1.1223,-1.1222,-1.1225,-1.121,-1.1214,-1.1218,-1.122,-1.1223,-1.1228,-1.1228,-1.1226,-1.1214,-1.1211,-1.1215,-1.122,-1.1224,-1.1223,-1.1162,-1.1211,-1.121,-1.121,-1.1209,-1.1209,-1.1261,-1.1268,-1.1263,-1.1266,-1.1264,-1.1263,-1.1269,-1.1262,-1.1265,-1.1266,-1.1258,-1.1264,-1.1261,-1.1261,-1.1259,-1.1265,-1.1256,-1.1262,-1.1263,-1.1265,-1.1268,-1.1222,-1.1265,-1.1264,-1.1264,-1.1264,-1.1264,0,-1.1308,-1.1303,-1.1307,-1.1305,-1.1308,-1.1295,-1.1293,-1.1297,-1.1302,-1.13,-1.1302,-1.1308,-1.1311,-1.1304,-1.1306,-1.1312,-1.1307,-1.1313,-1.1313,-1.1313,-1.1275,-1.1272,-1.1318,-1.1318,-1.1318,-1.1318,-1.1318,-1.1318,-1.1333,-1.1344,-1.1338,-1.1348,-1.1343,-1.1349,-1.1349,-1.1349,-1.1346,-1.1353,-1.1356,-1.135,-1.1346,-1.1348,-1.1351,-1.1349,-1.1351,-1.136,-1.1355,-1.1321,-1.1315,-1.1311,-1.1307,-1.136,-1.136,-1.1393,-1.1393,-1.1393]},{"header":{"parameterUnit":"m.s-1","parameterCategory":1,"la1":30.2991,"la2":30.254,"lo1":-89.0895,"lo2":-89.0444,"dy":0.0017,"dx":0.0017,"nx":28,"ny":28,"refTime":"2024-05-03T21:00:00:Z","depth":0,"parameterNumber":3,"parameterNumberName":"V-component_of_WINDS"},"data":[0,0,0,0,0,0,0,0,0,0,0,0,0,0,0,0,0,0,0,0,0,0,0,0,0,0,0,0,0,0,0,0,0,0,0,0,0,0,0,0,0,0,0,0,0,0,0,0,0,0,0,0,0,0,0,0,0,0,1.9241,1.9241,0,1.9217,1.9217,1.9216,1.9184,1.9184,1.9183,1.9183,1.9157,1.9156,1.9156,0,0,0,0,0,0,0,0,0,0,0,0,0,1.9258,1.9258,1.9241,1.9241,1.924,1.9217,1.9217,1.9216,1.9184,1.9184,1.9183,1.9182,1.9157,1.9156,1.9156,0,0,0,0,0,0,0,0,0,0,0,0,0,1.9244,1.9258,1.9241,1.9221,1.922,1.9217,1.9217,1.9216,1.9184,1.9184,1.9183,1.9182,1.9157,1.9156,1.9156,1.917,0,0,1.9155,1.9155,0,0,0,0,0,0,0,0,1.9245,1.9243,1.9225,1.9223,1.9221,1.9203,1.9213,1.9201,1.9185,1.9198,1.9183,1.9182,1.9172,1.9171,1.9168,1.9169,1.9168,1.9155,1.9155,1.9155,1.9155,0,0,0,0,0,0,0,1.9246,1.9244,1.9231,1.9224,1.9222,1.9214,1.9211,1.9211,1.919,1.9196,1.9194,1.9192,1.9171,1.9168,1.9167,1.9168,1.9155,1.9155,1.9155,1.9155,1.918,1.9181,0,0,0,0,0,0,1.925,1.9245,1.9232,1.9231,1.9231,1.9214,1.9211,1.9209,1.919,1.9186,1.9193,1.919,1.9169,1.9168,1.9166,1.9182,1.9155,1.9155,1.9154,1.9179,1.918,1.9181,0,0,0,0,0,0,1.925,1.9249,1.9233,1.9237,1.9235,1.9215,1.9213,1.9209,1.9206,1.9187,1.9183,1.9194,1.9169,1.9167,1.917,1.918,1.9155,1.9154,1.9178,1.9179,1.918,1.9213,0,0,0,0,0,0,1.9251,1.9249,1.9255,1.9238,1.9235,1.9237,1.9214,1.9209,1.9206,1.9203,1.9187,1.9183,1.9168,1.917,1.917,1.9179,1.9154,1.9177,1.9178,1.918,1.9211,1.9215,1.9219,0,0,0,0,0,1.9252,1.9264,1.9255,1.9254,1.9241,1.9238,1.9236,1.9219,1.9207,1.9212,1.92,1.9184,1.918,1.9171,1.917,1.918,1.9176,1.9178,1.918,1.9209,1.9214,1.9219,0,0,0,0,0,0,1.9282,1.9261,1.9251,1.9259,1.925,1.9233,1.9238,1.9225,1.9219,1.9217,1.9195,1.9191,1.9197,1.9189,1.918,1.9193,1.9175,1.9177,1.9198,1.9203,1.9207,1.9208,1.9154,0,0,0,0,0,1.929,1.9289,1.9271,1.928,1.9276,1.9258,1.9256,1.9244,1.9234,1.923,1.9218,1.9209,1.9206,1.9204,1.92,1.921,1.9206,1.9216,1.922,1.9223,1.9225,1.923,1.9234,1.9187,1.9187,1.9187,0,0,1.9305,1.9294,1.9295,1.9286,1.9278,1.9278,1.9255,1.9256,1.9256,1.923,1.9233,1.9224,1.9212,1.9219,1.9221,1.9212,1.9237,1.9226,1.9229,1.9228,1.9232,1.9237,1.9241,1.9188,1.9188,1.9188,0,0,1.9333,1.9325,1.9331,1.9324,1.9313,1.9301,1.9303,1.9287,1.928,1.9283,1.9264,1.9263,1.9258,1.9251,1.9246,1.9274,1.9258,1.9273,1.9293,1.9298,1.9302,1.9305,1.9315,1.9319,1.9274,1.9275,1.9275,0,1.9354,1.9354,1.9336,1.9338,1.9335,1.9313,1.9319,1.9313,1.9301,1.9299,1.9289,1.9282,1.9273,1.9278,1.9285,1.9282,1.9283,1.9274,1.9303,1.9306,1.9309,1.9318,1.9321,1.9276,1.9276,1.9276,1.9276,0,1.9379,1.938,1.9386,1.9376,1.9373,1.9377,1.936,1.9359,1.9348,1.9337,1.934,1.9328,1.9322,1.9322,1.931,1.9326,1.932,1.9307,1.9289,1.9315,1.9323,1.9327,1.9279,1.9278,1.9278,1.9277,0,0,1.9425,1.9406,1.9408,1.9403,1.939,1.939,1.9393,1.9388,1.9387,1.938,1.9382,1.9379,1.9368,1.9363,1.935,1.9355,1.9377,1.9341,1.934,1.9348,1.9393,1.9403,1.9407,1.9368,1.9368,1.9369,1.9394,0,1.945,1.9455,1.944,1.9449,1.9449,1.9428,1.9431,1.9424,1.9414,1.9413,1.9402,1.94,1.9384,1.9381,1.9385,1.9374,1.9386,1.9372,1.9369,1.9369,1.9372,1.9411,1.9421,1.9446,1.9397,1.9398,1.9398,0,1.948,1.9475,1.9484,1.9471,1.947,1.9473,1.9467,1.9466,1.9457,1.945,1.9445,1.9431,1.9434,1.9417,1.942,1.9411,1.9409,1.9404,1.9404,1.9403,1.9385,1.941,1.9453,1.9457,1.9403,1.9403,1.9402,0,1.9512,1.9508,1.9512,1.9509,1.9494,1.9497,1.949,1.9481,1.9479,1.9473,1.9472,1.9467,1.9464,1.946,1.9445,1.9435,1.945,1.9432,1.9444,1.9444,1.9447,1.9447,1.949,1.9447,1.9447,1.9447,1.9447,0,1.9541,1.9547,1.9527,1.953,1.9536,1.9519,1.9526,1.9518,1.9509,1.951,1.9493,1.9494,1.9474,1.9473,1.9462,1.9466,1.9465,1.9459,1.9456,1.946,1.9461,1.9458,1.9456,1.9448,1.9448,1.9448,1.9447,0,1.9577,1.9564,1.9568,1.9554,1.955,1.9556,1.9544,1.9546,1.9536,1.9537,1.9537,1.9521,1.9519,1.9504,1.9498,1.949,1.9499,1.9493,1.9502,1.95,1.9512,1.9511,1.9554,1.9559,1.9514,1.9514,1.9515,0,1.9597,1.9601,1.9588,1.9587,1.9582,1.9582,1.958,1.9564,1.9562,1.9553,1.9556,1.9553,1.955,1.9548,1.9536,1.9532,1.9525,1.954,1.9524,1.9529,1.9525,1.9524,1.9525,1.9543,1.9544,1.9544,1.9545,0,1.9632,1.9626,1.9624,1.962,1.9618,1.9614,1.9608,1.9609,1.9591,1.9591,1.9589,1.9586,1.9582,1.9579,1.9573,1.9566,1.9553,1.955,1.9553,1.9557,1.9562,1.9559,1.9511,1.9549,1.9549,1.9548,1.9548,1.9548,1.966,1.9663,1.9655,1.9653,1.9648,1.9644,1.9645,1.9636,1.9634,1.9629,1.962,1.962,1.9612,1.9602,1.9597,1.9597,1.9589,1.9592,1.9593,1.9594,1.9596,1.9563,1.9596,1.9595,1.9595,1.9595,1.9595,0,1.9695,1.9689,1.9688,1.9681,1.968,1.9668,1.9662,1.9662,1.9662,1.9656,1.9653,1.9652,1.9649,1.9638,1.9634,1.9636,1.9629,1.9635,1.9635,1.9633,1.9604,1.9602,1.9641,1.9641,1.9641,1.964,1.964,1.964,1.9713,1.9718,1.971,1.9712,1.9706,1.9706,1.9704,1.97,1.9695,1.9694,1.9692,1.9685,1.9676,1.9672,1.9669,1.9666,1.9665,1.9673,1.9667,1.964,1.9635,1.9631,1.9629,1.9673,1.9673,1.9697,1.9697,1.9697]}]]